"Sample Date","Sample Time","Sample Value","Units","Flow Rate","Laser Status","Micron Size 0","Counts/Channel 0","Micron Size 1","Counts/Channel 1","Micron Size 2","Counts/Channel 2","Micron Size 3","Counts/Channel 3","Micron Size 4","Counts/Channel 4","Micron Size 5","Counts/Channel 5","Micron Size 6","Counts/Channel 6","Micron Size 7","Counts/Channel 7","Micron Size 8","Counts/Channel 8","Micron Size 9","Counts/Channel 9","Micron Size 10","Counts/Channel 10","Micron Size 11","Counts/Channel 11","Micron Size 12","Counts/Channel 12","Micron Size 13","Counts/Channel 13","Micron Size 14","Counts/Channel 14","Micron Size 15","Counts/Channel 15","Micron Size 16","Counts/Channel 16","Micron Size 17","Counts/Channel 17","Micron Size 18","Counts/Channel 18","Micron Size 19","Counts/Channel 19","Micron Size 20","Counts/Channel 20","Micron Size 21","Counts/Channel 21","Micron Size 22","Counts/Channel 22","Micron Size 23","Counts/Channel 23","Micron Size 24","Counts/Channel 24","Micron Size 25","Counts/Channel 25","Micron Size 26","Counts/Channel 26","Micron Size 27","Counts/Channel 27","Micron Size 28","Counts/Channel 28","Micron Size 29","Counts/Channel 29","Micron Size 30","Counts/Channel 30","Micron Size 31","Counts/Channel 31"
"03/02/08","10:00:04",20839.000,"cc",28298.912,1,0.100,18336.000,0.200,1466.000,0.300,457.000,0.500,420.000,1.000,160.000,5.000,0
"03/02/08","10:00:10",21078.000,"cc",28311.566,1,0.100,18617.000,0.200,1456.000,0.300,422.000,0.500,421.000,1.000,162.000,5.000,0
"03/02/08","10:00:16",21130.000,"cc",28341.940,1,0.100,18602.000,0.200,1520.000,0.300,431.000,0.500,418.000,1.000,159.000,5.000,0
"03/02/08","10:00:22",21167.000,"cc",28301.637,1,0.100,18584.000,0.200,1584.000,0.300,407.000,0.500,417.000,1.000,175.000,5.000,0
"03/02/08","10:00:28",21323.000,"cc",28301.481,1,0.100,18773.000,0.200,1567.000,0.300,429.000,0.500,398.000,1.000,156.000,5.000,0
"03/02/08","10:00:34",21336.000,"cc",28340.420,1,0.100,18716.000,0.200,1581.000,0.300,428.000,0.500,422.000,1.000,189.000,5.000,0
"03/02/08","10:00:40",21263.000,"cc",28294.092,1,0.100,18674.000,0.200,1587.000,0.300,438.000,0.500,389.000,1.000,175.000,5.000,0
"03/02/08","10:00:46",21131.000,"cc",28281.186,1,0.100,18622.000,0.200,1586.000,0.300,395.000,0.500,378.000,1.000,150.000,5.000,0
"03/02/08","10:00:52",21621.000,"cc",28330.768,1,0.100,19040.000,0.200,1551.000,0.300,452.000,0.500,412.000,1.000,166.000,5.000,0
"03/02/08","10:00:58",21892.000,"cc",28386.600,1,0.100,19289.000,0.200,1606.000,0.300,435.000,0.500,377.000,1.000,185.000,5.000,0
"03/02/08","10:01:04",22223.000,"cc",28262.897,1,0.100,19516.000,0.200,1708.000,0.300,443.000,0.500,389.000,1.000,167.000,5.000,0
"03/02/08","10:01:10",21993.000,"cc",28290.561,1,0.100,19264.000,0.200,1609.000,0.300,487.000,0.500,441.000,1.000,192.000,5.000,0
"03/02/08","10:01:16",21982.000,"cc",28322.953,1,0.100,19219.000,0.200,1700.000,0.300,445.000,0.500,434.000,1.000,184.000,5.000,0
"03/02/08","10:01:22",21158.000,"cc",28332.594,1,0.100,18585.000,0.200,1542.000,0.300,432.000,0.500,412.000,1.000,187.000,5.000,0
"03/02/08","10:01:28",21279.000,"cc",28272.676,1,0.100,18639.000,0.200,1593.000,0.300,446.000,0.500,424.000,1.000,177.000,5.000,0
"03/02/08","10:01:34",21277.000,"cc",28359.541,1,0.100,18667.000,0.200,1550.000,0.300,491.000,0.500,391.000,1.000,178.000,5.000,0
"03/02/08","10:01:40",21625.000,"cc",28360.809,1,0.100,18955.000,0.200,1600.000,0.300,445.000,0.500,452.000,1.000,173.000,5.000,0
"03/02/08","10:01:46",21645.000,"cc",28315.990,1,0.100,19032.000,0.200,1548.000,0.300,451.000,0.500,445.000,1.000,169.000,5.000,0
"03/02/08","10:01:52",22131.000,"cc",28223.143,1,0.100,19503.000,0.200,1632.000,0.300,433.000,0.500,400.000,1.000,163.000,5.000,0
"03/02/08","10:01:58",21766.000,"cc",28318.525,1,0.100,19013.000,0.200,1669.000,0.300,470.000,0.500,437.000,1.000,177.000,5.000,0
"03/02/08","10:02:04",21854.000,"cc",28316.871,1,0.100,19120.000,0.200,1726.000,0.300,431.000,0.500,402.000,1.000,175.000,5.000,0
"03/02/08","10:02:10",23625.000,"cc",28346.988,1,0.100,20653.000,0.200,1906.000,0.300,482.000,0.500,412.000,1.000,172.000,5.000,0
"03/02/08","10:02:16",21898.000,"cc",28387.221,1,0.100,19253.000,0.200,1644.000,0.300,435.000,0.500,358.000,1.000,208.000,5.000,0
"03/02/08","10:02:22",22749.000,"cc",28306.557,1,0.100,19957.000,0.200,1760.000,0.300,449.000,0.500,411.000,1.000,172.000,5.000,0
"03/02/08","10:02:28",22164.000,"cc",28287.490,1,0.100,19442.000,0.200,1693.000,0.300,443.000,0.500,399.000,1.000,187.000,5.000,0
"03/02/08","10:02:34",21745.000,"cc",28275.746,1,0.100,19116.000,0.200,1584.000,0.300,446.000,0.500,418.000,1.000,181.000,5.000,0
"03/02/08","10:02:40",21974.000,"cc",28315.818,1,0.100,19305.000,0.200,1650.000,0.300,413.000,0.500,419.000,1.000,187.000,5.000,0
"03/02/08","10:02:46",22210.000,"cc",28314.506,1,0.100,19604.000,0.200,1613.000,0.300,444.000,0.500,379.000,1.000,170.000,5.000,0
"03/02/08","10:02:52",21699.000,"cc",28309.674,1,0.100,19072.000,0.200,1639.000,0.300,404.000,0.500,425.000,1.000,159.000,5.000,0
"03/02/08","10:02:58",21807.000,"cc",28296.004,1,0.100,19042.000,0.200,1685.000,0.300,482.000,0.500,423.000,1.000,175.000,5.000,0
"03/02/08","10:03:04",22111.000,"cc",28406.410,1,0.100,19422.000,0.200,1668.000,0.300,459.000,0.500,383.000,1.000,179.000,5.000,0
"03/02/08","10:03:10",27674.000,"cc",28354.525,1,0.100,24027.000,0.200,2538.000,0.300,547.000,0.500,389.000,1.000,173.000,5.000,0
"03/02/08","10:03:16",23833.000,"cc",28269.109,1,0.100,20875.000,0.200,1929.000,0.300,488.000,0.500,384.000,1.000,156.000,5.000,1.000
"03/02/08","10:03:22",23434.000,"cc",28341.443,1,0.100,20525.000,0.200,1821.000,0.300,501.000,0.500,413.000,1.000,174.000,5.000,0
"03/02/08","10:03:28",22068.000,"cc",28298.473,1,0.100,19381.000,0.200,1666.000,0.300,451.000,0.500,409.000,1.000,161.000,5.000,0
"03/02/08","10:03:34",22633.000,"cc",28349.180,1,0.100,19830.000,0.200,1758.000,0.300,455.000,0.500,405.000,1.000,185.000,5.000,0
"03/02/08","10:03:40",24447.000,"cc",28299.848,1,0.100,21394.000,0.200,1990.000,0.300,491.000,0.500,382.000,1.000,190.000,5.000,0
"03/02/08","10:03:46",21976.000,"cc",28299.004,1,0.100,19285.000,0.200,1630.000,0.300,464.000,0.500,431.000,1.000,166.000,5.000,0
"03/02/08","10:03:52",21958.000,"cc",28266.959,1,0.100,19255.000,0.200,1630.000,0.300,457.000,0.500,425.000,1.000,191.000,5.000,0
"03/02/08","10:03:58",21985.000,"cc",28321.832,1,0.100,19377.000,0.200,1600.000,0.300,446.000,0.500,391.000,1.000,171.000,5.000,0
"03/02/08","10:04:04",23062.000,"cc",28319.559,1,0.100,20162.000,0.200,1852.000,0.300,454.000,0.500,410.000,1.000,184.000,5.000,0
"03/02/08","10:04:10",23262.000,"cc",28302.793,1,0.100,20357.000,0.200,1878.000,0.300,477.000,0.500,396.000,1.000,154.000,5.000,0
"03/02/08","10:04:16",22142.000,"cc",28355.311,1,0.100,19532.000,0.200,1585.000,0.300,438.000,0.500,422.000,1.000,165.000,5.000,0
"03/02/08","10:04:22",21583.000,"cc",28283.113,1,0.100,18965.000,0.200,1589.000,0.300,417.000,0.500,435.000,1.000,177.000,5.000,0
"03/02/08","10:04:28",21325.000,"cc",28325.322,1,0.100,18892.000,0.200,1455.000,0.300,427.000,0.500,387.000,1.000,164.000,5.000,0
"03/02/08","10:04:34",21148.000,"cc",28359.854,1,0.100,18602.000,0.200,1565.000,0.300,409.000,0.500,399.000,1.000,173.000,5.000,0
"03/02/08","10:04:40",21457.000,"cc",28310.156,1,0.100,18976.000,0.200,1506.000,0.300,397.000,0.500,417.000,1.000,161.000,5.000,0
"03/02/08","10:04:46",21081.000,"cc",28268.160,1,0.100,18582.000,0.200,1474.000,0.300,422.000,0.500,426.000,1.000,177.000,5.000,0
"03/02/08","10:04:52",21322.000,"cc",28279.254,1,0.100,18827.000,0.200,1508.000,0.300,427.000,0.500,380.000,1.000,180.000,5.000,0
"03/02/08","10:04:58",20953.000,"cc",28338.232,1,0.100,18518.000,0.200,1459.000,0.300,408.000,0.500,383.000,1.000,185.000,5.000,0
"03/02/08","10:05:04",21044.000,"cc",28360.801,1,0.100,18589.000,0.200,1524.000,0.300,389.000,0.500,375.000,1.000,167.000,5.000,0
"03/02/08","10:05:10",21416.000,"cc",28313.690,1,0.100,18834.000,0.200,1566.000,0.300,441.000,0.500,400.000,1.000,175.000,5.000,0
"03/02/08","10:05:16",20999.000,"cc",28364.070,1,0.100,18584.000,0.200,1467.000,0.300,393.000,0.500,374.000,1.000,181.000,5.000,0
"03/02/08","10:05:22",20955.000,"cc",28291.246,1,0.100,18414.000,0.200,1518.000,0.300,438.000,0.500,400.000,1.000,185.000,5.000,0
"03/02/08","10:05:28",20974.000,"cc",28305.174,1,0.100,18500.000,0.200,1495.000,0.300,432.000,0.500,369.000,1.000,178.000,5.000,0
"03/02/08","10:05:34",20893.000,"cc",28303.756,1,0.100,18372.000,0.200,1480.000,0.300,427.000,0.500,415.000,1.000,199.000,5.000,0
"03/02/08","10:05:40",20776.000,"cc",28352.643,1,0.100,18285.000,0.200,1513.000,0.300,414.000,0.500,380.000,1.000,184.000,5.000,0
"03/02/08","10:05:46",20695.000,"cc",28299.887,1,0.100,18194.000,0.200,1532.000,0.300,406.000,0.500,414.000,1.000,149.000,5.000,0
"03/02/08","10:05:52",20922.000,"cc",28293.744,1,0.100,18470.000,0.200,1468.000,0.300,417.000,0.500,390.000,1.000,177.000,5.000,0
"03/02/08","10:05:58",21285.000,"cc",28305.592,1,0.100,18740.000,0.200,1519.000,0.300,396.000,0.500,464.000,1.000,166.000,5.000,0
"03/02/08","10:06:04",21146.000,"cc",28327.416,1,0.100,18610.000,0.200,1529.000,0.300,432.000,0.500,391.000,1.000,184.000,5.000,0
"03/02/08","10:06:10",21031.000,"cc",28334.559,1,0.100,18493.000,0.200,1521.000,0.300,438.000,0.500,404.000,1.000,175.000,5.000,0
"03/02/08","10:06:16",21108.000,"cc",28319.275,1,0.100,18602.000,0.200,1482.000,0.300,421.000,0.500,408.000,1.000,195.000,5.000,0
"03/02/08","10:06:22",20613.000,"cc",28331.824,1,0.100,18220.000,0.200,1430.000,0.300,389.000,0.500,405.000,1.000,169.000,5.000,0
"03/02/08","10:06:28",20786.000,"cc",28296.445,1,0.100,18298.000,0.200,1521.000,0.300,386.000,0.500,412.000,1.000,169.000,5.000,0
"03/02/08","10:06:34",21013.000,"cc",28299.555,1,0.100,18629.000,0.200,1397.000,0.300,423.000,0.500,394.000,1.000,170.000,5.000,0
"03/02/08","10:06:40",20890.000,"cc",28301.354,1,0.100,18425.000,0.200,1497.000,0.300,390.000,0.500,399.000,1.000,179.000,5.000,0
"03/02/08","10:06:46",21205.000,"cc",28343.002,1,0.100,18737.000,0.200,1506.000,0.300,418.000,0.500,366.000,1.000,178.000,5.000,0
"03/02/08","10:06:52",20939.000,"cc",28378.688,1,0.100,18471.000,0.200,1491.000,0.300,423.000,0.500,383.000,1.000,171.000,5.000,0
"03/02/08","10:06:58",21158.000,"cc",28292.852,1,0.100,18725.000,0.200,1440.000,0.300,401.000,0.500,416.000,1.000,176.000,5.000,0
"03/02/08","10:07:04",21007.000,"cc",28264.246,1,0.100,18471.000,0.200,1499.000,0.300,418.000,0.500,415.000,1.000,204.000,5.000,0
"03/02/08","10:07:10",20580.000,"cc",28331.973,1,0.100,18231.000,0.200,1364.000,0.300,431.000,0.500,401.000,1.000,153.000,5.000,0
"03/02/08","10:07:16",20893.000,"cc",28300.397,1,0.100,18351.000,0.200,1512.000,0.300,432.000,0.500,436.000,1.000,162.000,5.000,0
"03/02/08","10:07:22",20938.000,"cc",28270.660,1,0.100,18499.000,0.200,1447.000,0.300,424.000,0.500,411.000,1.000,157.000,5.000,0
"03/02/08","10:07:28",20837.000,"cc",28333.047,1,0.100,18399.000,0.200,1458.000,0.300,419.000,0.500,375.000,1.000,186.000,5.000,0
"03/02/08","10:07:34",21226.000,"cc",28424.984,1,0.100,18719.000,0.200,1515.000,0.300,424.000,0.500,386.000,1.000,182.000,5.000,0
"03/02/08","10:07:40",21185.000,"cc",28307.315,1,0.100,18689.000,0.200,1541.000,0.300,412.000,0.500,384.000,1.000,159.000,5.000,0
"03/02/08","10:07:46",20925.000,"cc",28297.654,1,0.100,18521.000,0.200,1446.000,0.300,413.000,0.500,374.000,1.000,171.000,5.000,0
"03/02/08","10:07:52",21127.000,"cc",28319.315,1,0.100,18714.000,0.200,1442.000,0.300,420.000,0.500,380.000,1.000,171.000,5.000,0
"03/02/08","10:07:58",21289.000,"cc",28270.414,1,0.100,18808.000,0.200,1486.000,0.300,432.000,0.500,387.000,1.000,176.000,5.000,0
"03/02/08","10:08:04",20884.000,"cc",28336.240,1,0.100,18420.000,0.200,1479.000,0.300,391.000,0.500,424.000,1.000,170.000,5.000,0
"03/02/08","10:08:10",21406.000,"cc",28230.152,1,0.100,18824.000,0.200,1546.000,0.300,428.000,0.500,413.000,1.000,195.000,5.000,0
"03/02/08","10:08:16",21223.000,"cc",28401.020,1,0.100,18707.000,0.200,1494.000,0.300,400.000,0.500,441.000,1.000,181.000,5.000,0
"03/02/08","10:08:22",22431.000,"cc",28363.705,1,0.100,19734.000,0.200,1715.000,0.300,451.000,0.500,361.000,1.000,170.000,5.000,0
"03/02/08","10:08:28",23212.000,"cc",28283.715,1,0.100,20397.000,0.200,1805.000,0.300,444.000,0.500,398.000,1.000,168.000,5.000,0
"03/02/08","10:08:34",22069.000,"cc",28301.537,1,0.100,19437.000,0.200,1641.000,0.300,434.000,0.500,374.000,1.000,183.000,5.000,0
"03/02/08","10:08:40",21019.000,"cc",28279.498,1,0.100,18562.000,0.200,1450.000,0.300,441.000,0.500,401.000,1.000,165.000,5.000,0
"03/02/08","10:08:46",21090.000,"cc",28323.320,1,0.100,18661.000,0.200,1444.000,0.300,394.000,0.500,393.000,1.000,198.000,5.000,0
"03/02/08","10:08:52",20543.000,"cc",28363.006,1,0.100,18118.000,0.200,1439.000,0.300,409.000,0.500,418.000,1.000,159.000,5.000,0
"03/02/08","10:08:58",20650.000,"cc",28295.584,1,0.100,18333.000,0.200,1369.000,0.300,381.000,0.500,378.000,1.000,189.000,5.000,0
"03/02/08","10:09:04",20964.000,"cc",28310.184,1,0.100,18470.000,0.200,1436.000,0.300,434.000,0.500,426.000,1.000,198.000,5.000,0
"03/02/08","10:09:10",20660.000,"cc",28361.318,1,0.100,18214.000,0.200,1504.000,0.300,399.000,0.500,377.000,1.000,166.000,5.000,0
"03/02/08","10:09:16",20802.000,"cc",28336.375,1,0.100,18389.000,0.200,1460.000,0.300,396.000,0.500,379.000,1.000,178.000,5.000,0
"03/02/08","10:09:22",20414.000,"cc",28346.162,1,0.100,17964.000,0.200,1481.000,0.300,387.000,0.500,415.000,1.000,167.000,5.000,0
"03/02/08","10:09:28",20759.000,"cc",28287.186,1,0.100,18292.000,0.200,1454.000,0.300,408.000,0.500,420.000,1.000,185.000,5.000,0
"03/02/08","10:09:34",20819.000,"cc",28253.920,1,0.100,18333.000,0.200,1468.000,0.300,410.000,0.500,406.000,1.000,202.000,5.000,0
"03/02/08","10:09:40",20870.000,"cc",28242.711,1,0.100,18497.000,0.200,1421.000,0.300,391.000,0.500,394.000,1.000,167.000,5.000,0
"03/02/08","10:09:46",20607.000,"cc",28363.053,1,0.100,18206.000,0.200,1403.000,0.300,418.000,0.500,389.000,1.000,191.000,5.000,0
"03/02/08","10:09:52",20492.000,"cc",28320.820,1,0.100,18073.000,0.200,1451.000,0.300,384.000,0.500,388.000,1.000,196.000,5.000,0
"03/02/08","10:09:58",20442.000,"cc",28283.734,1,0.100,18110.000,0.200,1397.000,0.300,373.000,0.500,387.000,1.000,175.000,5.000,0
"03/02/08","10:10:04",20299.000,"cc",28308.662,1,0.100,17916.000,0.200,1334.000,0.300,441.000,0.500,431.000,1.000,177.000,5.000,0
"03/02/08","10:10:10",20082.000,"cc",28361.209,1,0.100,17803.000,0.200,1359.000,0.300,374.000,0.500,379.000,1.000,167.000,5.000,0
"03/02/08","10:10:16",20458.000,"cc",28308.426,1,0.100,18104.000,0.200,1356.000,0.300,419.000,0.500,417.000,1.000,162.000,5.000,0
"03/02/08","10:10:22",20773.000,"cc",28344.463,1,0.100,18442.000,0.200,1389.000,0.300,364.000,0.500,390.000,1.000,188.000,5.000,0
"03/02/08","10:10:28",20384.000,"cc",28323.272,1,0.100,18107.000,0.200,1347.000,0.300,394.000,0.500,358.000,1.000,178.000,5.000,0
"03/02/08","10:10:34",20557.000,"cc",28303.623,1,0.100,18136.000,0.200,1400.000,0.300,430.000,0.500,400.000,1.000,191.000,5.000,0
"03/02/08","10:10:40",21160.000,"cc",28386.981,1,0.100,18695.000,0.200,1446.000,0.300,431.000,0.500,386.000,1.000,202.000,5.000,0
"03/02/08","10:10:46",20898.000,"cc",28316.520,1,0.100,18487.000,0.200,1466.000,0.300,387.000,0.500,388.000,1.000,170.000,5.000,0
"03/02/08","10:10:52",21230.000,"cc",28290.965,1,0.100,18741.000,0.200,1533.000,0.300,425.000,0.500,362.000,1.000,169.000,5.000,0
"03/02/08","10:10:58",22222.000,"cc",28320.371,1,0.100,19562.000,0.200,1668.000,0.300,394.000,0.500,411.000,1.000,187.000,5.000,0
"03/02/08","10:11:04",25214.000,"cc",28264.674,1,0.100,22007.000,0.200,2155.000,0.300,487.000,0.500,393.000,1.000,172.000,5.000,0
"03/02/08","10:11:10",22985.000,"cc",28289.873,1,0.100,20253.000,0.200,1727.000,0.300,465.000,0.500,377.000,1.000,163.000,5.000,0
"03/02/08","10:11:16",22053.000,"cc",28284.820,1,0.100,19428.000,0.200,1587.000,0.300,431.000,0.500,412.000,1.000,195.000,5.000,0
"03/02/08","10:11:22",21285.000,"cc",28401.459,1,0.100,18778.000,0.200,1465.000,0.300,441.000,0.500,396.000,1.000,205.000,5.000,0
"03/02/08","10:11:28",21212.000,"cc",28318.154,1,0.100,18727.000,0.200,1521.000,0.300,407.000,0.500,400.000,1.000,157.000,5.000,0
"03/02/08","10:11:34",21507.000,"cc",28271.365,1,0.100,18944.000,0.200,1567.000,0.300,441.000,0.500,374.000,1.000,181.000,5.000,0
"03/02/08","10:11:40",21331.000,"cc",28369.498,1,0.100,18815.000,0.200,1547.000,0.300,418.000,0.500,374.000,1.000,177.000,5.000,0
"03/02/08","10:11:46",20908.000,"cc",28327.436,1,0.100,18545.000,0.200,1440.000,0.300,399.000,0.500,384.000,1.000,140.000,5.000,0
"03/02/08","10:11:52",21298.000,"cc",28326.014,1,0.100,18928.000,0.200,1427.000,0.300,390.000,0.500,386.000,1.000,167.000,5.000,0
"03/02/08","10:11:58",20877.000,"cc",28338.856,1,0.100,18382.000,0.200,1548.000,0.300,398.000,0.500,369.000,1.000,180.000,5.000,0
"03/02/08","10:12:04",21018.000,"cc",28312.627,1,0.100,18538.000,0.200,1525.000,0.300,402.000,0.500,396.000,1.000,157.000,5.000,0
"03/02/08","10:12:10",21406.000,"cc",28293.984,1,0.100,18907.000,0.200,1530.000,0.300,388.000,0.500,405.000,1.000,176.000,5.000,0
"03/02/08","10:12:16",20842.000,"cc",28294.190,1,0.100,18413.000,0.200,1474.000,0.300,404.000,0.500,375.000,1.000,176.000,5.000,0
"03/02/08","10:12:22",21290.000,"cc",28326.121,1,0.100,18771.000,0.200,1527.000,0.300,421.000,0.500,385.000,1.000,186.000,5.000,0
"03/02/08","10:12:28",21448.000,"cc",28324.930,1,0.100,18925.000,0.200,1574.000,0.300,401.000,0.500,367.000,1.000,181.000,5.000,0
"03/02/08","10:12:34",21050.000,"cc",28322.918,1,0.100,18556.000,0.200,1553.000,0.300,399.000,0.500,387.000,1.000,155.000,5.000,0
"03/02/08","10:12:40",21635.000,"cc",28332.779,1,0.100,19101.000,0.200,1552.000,0.300,411.000,0.500,381.000,1.000,190.000,5.000,0
"03/02/08","10:12:46",21408.000,"cc",28286.699,1,0.100,18886.000,0.200,1526.000,0.300,443.000,0.500,381.000,1.000,172.000,5.000,0
"03/02/08","10:12:52",21152.000,"cc",28320.289,1,0.100,18668.000,0.200,1522.000,0.300,391.000,0.500,395.000,1.000,176.000,5.000,0
"03/02/08","10:12:58",21330.000,"cc",28293.115,1,0.100,18836.000,0.200,1545.000,0.300,413.000,0.500,377.000,1.000,159.000,5.000,0
"03/02/08","10:13:04",21680.000,"cc",28322.137,1,0.100,19003.000,0.200,1662.000,0.300,412.000,0.500,426.000,1.000,177.000,5.000,0
"03/02/08","10:13:10",21745.000,"cc",28306.119,1,0.100,19213.000,0.200,1528.000,0.300,423.000,0.500,406.000,1.000,175.000,5.000,0
"03/02/08","10:13:16",21792.000,"cc",28340.000,1,0.100,19181.000,0.200,1641.000,0.300,411.000,0.500,377.000,1.000,182.000,5.000,0
"03/02/08","10:13:22",22082.000,"cc",28342.152,1,0.100,19330.000,0.200,1730.000,0.300,424.000,0.500,417.000,1.000,181.000,5.000,0
"03/02/08","10:13:28",22547.000,"cc",28296.469,1,0.100,19879.000,0.200,1713.000,0.300,393.000,0.500,384.000,1.000,178.000,5.000,0
"03/02/08","10:13:34",23769.000,"cc",28234.354,1,0.100,20858.000,0.200,1877.000,0.300,442.000,0.500,396.000,1.000,196.000,5.000,0
"03/02/08","10:13:40",22964.000,"cc",28363.336,1,0.100,20267.000,0.200,1704.000,0.300,417.000,0.500,392.000,1.000,184.000,5.000,0
"03/02/08","10:13:46",22998.000,"cc",28384.404,1,0.100,20265.000,0.200,1780.000,0.300,401.000,0.500,395.000,1.000,157.000,5.000,0
"03/02/08","10:13:52",23106.000,"cc",28302.547,1,0.100,20313.000,0.200,1774.000,0.300,461.000,0.500,396.000,1.000,162.000,5.000,0
"03/02/08","10:13:58",22807.000,"cc",28309.418,1,0.100,20088.000,0.200,1751.000,0.300,435.000,0.500,373.000,1.000,160.000,5.000,0
"03/02/08","10:14:04",23067.000,"cc",28268.150,1,0.100,20243.000,0.200,1834.000,0.300,448.000,0.500,387.000,1.000,155.000,5.000,0
"03/02/08","10:14:10",23949.000,"cc",28343.652,1,0.100,20981.000,0.200,1915.000,0.300,454.000,0.500,422.000,1.000,177.000,5.000,0
"03/02/08","10:14:16",23351.000,"cc",28326.215,1,0.100,20508.000,0.200,1824.000,0.300,433.000,0.500,403.000,1.000,183.000,5.000,0
"03/02/08","10:14:22",23209.000,"cc",28321.063,1,0.100,20370.000,0.200,1859.000,0.300,431.000,0.500,367.000,1.000,182.000,5.000,0
"03/02/08","10:14:28",23040.000,"cc",28327.232,1,0.100,20301.000,0.200,1758.000,0.300,433.000,0.500,380.000,1.000,168.000,5.000,0
"03/02/08","10:14:34",23230.000,"cc",28291.033,1,0.100,20375.000,0.200,1858.000,0.300,436.000,0.500,408.000,1.000,153.000,5.000,0
"03/02/08","10:14:40",23642.000,"cc",28325.496,1,0.100,20731.000,0.200,1934.000,0.300,458.000,0.500,374.000,1.000,145.000,5.000,0
"03/02/08","10:14:46",23409.000,"cc",28273.904,1,0.100,20522.000,0.200,1847.000,0.300,458.000,0.500,405.000,1.000,177.000,5.000,0
"03/02/08","10:14:52",23548.000,"cc",28344.811,1,0.100,20708.000,0.200,1869.000,0.300,422.000,0.500,411.000,1.000,138.000,5.000,0
"03/02/08","10:14:58",23603.000,"cc",28284.117,1,0.100,20694.000,0.200,1888.000,0.300,475.000,0.500,380.000,1.000,166.000,5.000,0
"03/02/08","10:15:04",23372.000,"cc",28345.570,1,0.100,20504.000,0.200,1902.000,0.300,425.000,0.500,371.000,1.000,170.000,5.000,0
"03/02/08","10:15:10",23541.000,"cc",28358.857,1,0.100,20724.000,0.200,1799.000,0.300,474.000,0.500,360.000,1.000,184.000,5.000,0
"03/02/08","10:15:16",23188.000,"cc",28324.461,1,0.100,20403.000,0.200,1753.000,0.300,475.000,0.500,390.000,1.000,167.000,5.000,0
"03/02/08","10:15:22",22566.000,"cc",28223.768,1,0.100,19866.000,0.200,1688.000,0.300,434.000,0.500,402.000,1.000,176.000,5.000,0
"03/02/08","10:15:28",22838.000,"cc",28259.508,1,0.100,20018.000,0.200,1787.000,0.300,426.000,0.500,427.000,1.000,180.000,5.000,0
"03/02/08","10:15:34",23010.000,"cc",28333.893,1,0.100,20209.000,0.200,1765.000,0.300,455.000,0.500,396.000,1.000,185.000,5.000,0
"03/02/08","10:15:40",23072.000,"cc",28343.027,1,0.100,20255.000,0.200,1851.000,0.300,433.000,0.500,366.000,1.000,167.000,5.000,0
"03/02/08","10:15:46",22863.000,"cc",28329.393,1,0.100,20109.000,0.200,1771.000,0.300,458.000,0.500,383.000,1.000,142.000,5.000,0
"03/02/08","10:15:52",23257.000,"cc",28328.482,1,0.100,20436.000,0.200,1811.000,0.300,442.000,0.500,402.000,1.000,166.000,5.000,0
"03/02/08","10:15:58",22657.000,"cc",28335.584,1,0.100,19873.000,0.200,1790.000,0.300,447.000,0.500,386.000,1.000,161.000,5.000,0
"03/02/08","10:16:04",22423.000,"cc",28312.432,1,0.100,19749.000,0.200,1694.000,0.300,429.000,0.500,388.000,1.000,163.000,5.000,0
"03/02/08","10:16:10",22326.000,"cc",28295.414,1,0.100,19696.000,0.200,1625.000,0.300,414.000,0.500,414.000,1.000,177.000,5.000,0
"03/02/08","10:16:16",22871.000,"cc",28352.523,1,0.100,20189.000,0.200,1703.000,0.300,449.000,0.500,362.000,1.000,168.000,5.000,0
"03/02/08","10:16:22",22321.000,"cc",28343.092,1,0.100,19651.000,0.200,1673.000,0.300,433.000,0.500,368.000,1.000,196.000,5.000,0
"03/02/08","10:16:28",22283.000,"cc",28278.760,1,0.100,19599.000,0.200,1690.000,0.300,423.000,0.500,397.000,1.000,174.000,5.000,0
"03/02/08","10:16:34",21561.000,"cc",28325.904,1,0.100,18982.000,0.200,1571.000,0.300,409.000,0.500,414.000,1.000,185.000,5.000,0
"03/02/08","10:16:40",22080.000,"cc",28321.395,1,0.100,19402.000,0.200,1674.000,0.300,462.000,0.500,392.000,1.000,150.000,5.000,0
"03/02/08","10:16:46",22314.000,"cc",28338.736,1,0.100,19691.000,0.200,1628.000,0.300,441.000,0.500,382.000,1.000,172.000,5.000,0
"03/02/08","10:16:52",22755.000,"cc",28334.408,1,0.100,19957.000,0.200,1787.000,0.300,443.000,0.500,376.000,1.000,192.000,5.000,0
"03/02/08","10:16:58",23396.000,"cc",28326.807,1,0.100,20553.000,0.200,1813.000,0.300,461.000,0.500,404.000,1.000,165.000,5.000,0
"03/02/08","10:17:04",22196.000,"cc",28352.168,1,0.100,19493.000,0.200,1712.000,0.300,424.000,0.500,397.000,1.000,170.000,5.000,0
"03/02/08","10:17:10",21881.000,"cc",28241.590,1,0.100,19278.000,0.200,1627.000,0.300,420.000,0.500,373.000,1.000,183.000,5.000,0
"03/02/08","10:17:16",21755.000,"cc",28353.414,1,0.100,19208.000,0.200,1633.000,0.300,371.000,0.500,392.000,1.000,151.000,5.000,0